• In Czech Republic
  • List of Countries
  • For 7 days
  • Water Temperature
  • Satellite Maps
  • Weather Map
  • Weather Widgets
  • user-avatar
    Login

    Hourly Weather Khulna

    Today, 17 December, Sunday

    Time Temperature Precipitation Wind Pressure Humidity
    00:00 +21°C° 0 mm 1 mps 762 mmHg 42%
    01:00 +20°C° 0 mm 1 mps 762 mmHg 43%
    02:00 +20°C° 0 mm 1 mps 762 mmHg 44%
    03:00 +19°C° 0 mm 2 mps 762 mmHg 45%
    04:00 +19°C° 0 mm 1 mps 762 mmHg 46%
    05:00 +19°C° 0 mm 1 mps 762 mmHg 47%
    06:00 +19°C° 0 mm 1 mps 762 mmHg 48%
    07:00 +21°C° 0 mm 1 mps 763 mmHg 46%
    08:00 +22°C° 0 mm 1 mps 763 mmHg 44%
    09:00 +24°C° 0 mm 2 mps 764 mmHg 43%
    10:00 +25°C° 0 mm 2 mps 764 mmHg 40%
    11:00 +27°C° 0 mm 2 mps 763 mmHg 37%
    12:00 +28°C° 0 mm 2 mps 763 mmHg 35%
    13:00 +29°C° 0 mm 2 mps 762 mmHg 33%
    14:00 +29°C° 0 mm 2 mps 762 mmHg 31%
    15:00 +29°C° 0 mm 2 mps 761 mmHg 29%
    16:00 +28°C° 0 mm 2 mps 761 mmHg 32%
    17:00 +26°C° 0 mm 1 mps 761 mmHg 35%
    18:00 +24°C° 0 mm 1 mps 761 mmHg 38%
    19:00 +23°C° 0 mm 1 mps 762 mmHg 38%
    20:00 +23°C° 0 mm 1 mps 762 mmHg 38%
    21:00 +22°C° 0 mm 1 mps 763 mmHg 39%
    22:00 +22°C° 0 mm 1 mps 763 mmHg 39%
    23:00 +21°C° 0 mm 1 mps 763 mmHg 40%

    Tomorrow, 18 December, Monday

    Time Temperature Precipitation Wind Pressure Humidity
    00:00 +20°C° 0 mm 2 mps 763 mmHg 40%
    01:00 +19°C° 0 mm 2 mps 762 mmHg 41%
    02:00 +19°C° 0 mm 2 mps 762 mmHg 43%
    03:00 +19°C° 0 mm 2 mps 762 mmHg 45%
    04:00 +18°C° 0 mm 2 mps 762 mmHg 48%
    05:00 +18°C° 0 mm 2 mps 762 mmHg 51%
    06:00 +18°C° 0 mm 2 mps 762 mmHg 54%
    07:00 +19°C° 0 mm 2 mps 763 mmHg 54%
    08:00 +21°C° 0 mm 2 mps 763 mmHg 53%
    09:00 +24°C° 0 mm 2 mps 764 mmHg 52%
    10:00 +25°C° 0 mm 2 mps 764 mmHg 49%
    11:00 +27°C° 0 mm 2 mps 763 mmHg 46%
    12:00 +28°C° 0 mm 2 mps 763 mmHg 43%
    13:00 +29°C° 0 mm 2 mps 762 mmHg 41%
    14:00 +29°C° 0 mm 2 mps 762 mmHg 39%
    15:00 +29°C° 0 mm 2 mps 761 mmHg 37%
    16:00 +28°C° 0 mm 2 mps 761 mmHg 41%
    17:00 +26°C° 0 mm 1 mps 761 mmHg 45%
    18:00 +25°C° 0 mm 1 mps 761 mmHg 50%
    19:00 +24°C° 0 mm 1 mps 762 mmHg 51%
    20:00 +23°C° 0 mm 1 mps 762 mmHg 53%
    21:00 +23°C° 0 mm 1 mps 763 mmHg 54%
    22:00 +21°C° 0 mm 2 mps 762 mmHg 55%
    23:00 +21°C° 0 mm 2 mps 762 mmHg 57%

    Day after tomorrow, 19 December, Tuesday

    Time Temperature Precipitation Wind Pressure Humidity
    00:00 +20°C° 0 mm 2 mps 762 mmHg 58%
    01:00 +20°C° 0 mm 2 mps 762 mmHg 60%
    02:00 +20°C° 0 mm 2 mps 761 mmHg 62%
    03:00 +19°C° 0 mm 2 mps 761 mmHg 64%
    04:00 +19°C° 0 mm 2 mps 761 mmHg 67%
    05:00 +19°C° 0 mm 2 mps 761 mmHg 69%
    06:00 +18°C° 0 mm 2 mps 762 mmHg 72%
    07:00 +20°C° 0 mm 2 mps 762 mmHg 68%
    08:00 +23°C° 0 mm 2 mps 763 mmHg 64%
    09:00 +24°C° 0 mm 2 mps 764 mmHg 60%
    10:00 +26°C° 0 mm 2 mps 764 mmHg 54%
    11:00 +27°C° 0 mm 2 mps 763 mmHg 48%
    12:00 +28°C° 0 mm 2 mps 763 mmHg 43%
    13:00 +29°C° 0 mm 2 mps 762 mmHg 41%
    14:00 +29°C° 0 mm 2 mps 762 mmHg 38%
    15:00 +30°C° 0 mm 2 mps 761 mmHg 36%
    16:00 +28°C° 0 mm 1 mps 761 mmHg 40%
    17:00 +27°C° 0 mm 1 mps 761 mmHg 44%
    18:00 +25°C° 0 mm 1 mps 761 mmHg 48%
    19:00 +24°C° 0 mm 1 mps 762 mmHg 51%
    20:00 +24°C° 0 mm 1 mps 762 mmHg 53%
    21:00 +23°C° 0 mm 1 mps 763 mmHg 55%
    22:00 +23°C° 0 mm 1 mps 763 mmHg 56%
    23:00 +22°C° 0 mm 1 mps 763 mmHg 58%

    20 December, Wednesday

    Time Temperature Precipitation Wind Pressure Humidity
    00:00 +22°C° 0 mm 1 mps 762 mmHg 59%
    01:00 +21°C° 0 mm 1 mps 762 mmHg 61%
    02:00 +21°C° 0 mm 1 mps 762 mmHg 63%
    03:00 +21°C° 0 mm 1 mps 762 mmHg 64%
    04:00 +20°C° 0 mm 1 mps 762 mmHg 66%
    05:00 +20°C° 0 mm 1 mps 762 mmHg 67%
    06:00 +20°C° 0 mm 1 mps 762 mmHg 69%
    07:00 +21°C° 0 mm 1 mps 763 mmHg 65%
    08:00 +23°C° 0 mm 2 mps 764 mmHg 60%
    09:00 +25°C° 0 mm 2 mps 764 mmHg 56%
    10:00 +26°C° 0 mm 2 mps 764 mmHg 51%
    11:00 +27°C° 0 mm 2 mps 764 mmHg 45%
    12:00 +29°C° 0 mm 2 mps 763 mmHg 40%
    13:00 +29°C° 0 mm 2 mps 762 mmHg 38%
    14:00 +30°C° 0 mm 2 mps 762 mmHg 36%
    15:00 +30°C° 0 mm 2 mps 761 mmHg 34%
    16:00 +29°C° 0 mm 1 mps 761 mmHg 37%
    17:00 +27°C° 0 mm 1 mps 761 mmHg 41%
    18:00 +25°C° 0 mm 1 mps 761 mmHg 45%
    19:00 +25°C° 0 mm 1 mps 762 mmHg 47%
    20:00 +24°C° 0 mm 1 mps 762 mmHg 49%
    21:00 +23°C° 0 mm 1 mps 763 mmHg 51%
    22:00 +23°C° 0 mm 1 mps 763 mmHg 53%
    23:00 +20°C° 0 mm 0 mps 762 mmHg 54%

    21 December, Thursday

    Time Temperature Precipitation Wind Pressure Humidity
    00:00 +20°C° 0 mm 0 mps 762 mmHg 56%
    01:00 +20°C° 0 mm 0 mps 762 mmHg 57%
    02:00 +19°C° 0 mm 0 mps 762 mmHg 58%
    03:00 +19°C° 0 mm 0 mps 762 mmHg 59%
    04:00 +19°C° 0 mm 0 mps 762 mmHg 60%
    05:00 +20°C° 0 mm 1 mps 762 mmHg 61%
    06:00 +20°C° 0 mm 1 mps 762 mmHg 62%
    07:00 +22°C° 0 mm 1 mps 763 mmHg 58%
    08:00 +23°C° 0 mm 1 mps 764 mmHg 54%
    09:00 +25°C° 0 mm 1 mps 764 mmHg 50%
    10:00 +27°C° 0 mm 1 mps 764 mmHg 46%
    11:00 +28°C° 0 mm 2 mps 763 mmHg 41%
    12:00 +29°C° 0 mm 2 mps 763 mmHg 37%
    13:00 +30°C° 0 mm 2 mps 762 mmHg 36%
    14:00 +30°C° 0 mm 2 mps 761 mmHg 34%
    15:00 +30°C° 0 mm 2 mps 760 mmHg 33%
    16:00 +29°C° 0 mm 2 mps 760 mmHg 37%
    17:00 +27°C° 0 mm 1 mps 760 mmHg 41%
    18:00 +25°C° 0 mm 1 mps 760 mmHg 45%
    19:00 +25°C° 0 mm 1 mps 761 mmHg 46%
    20:00 +24°C° 0 mm 1 mps 761 mmHg 48%
    21:00 +23°C° 0 mm 1 mps 761 mmHg 50%
    22:00 +23°C° 0 mm 1 mps 761 mmHg 51%
    23:00 +23°C° 0 mm 1 mps 761 mmHg 53%

    22 December, Friday

    Time Temperature Precipitation Wind Pressure Humidity
    00:00 +22°C° 0 mm 1 mps 761 mmHg 54%
    01:00 +22°C° 0 mm 1 mps 760 mmHg 55%
    02:00 +21°C° 0 mm 1 mps 760 mmHg 56%
    03:00 +21°C° 0 mm 1 mps 760 mmHg 57%
    04:00 +21°C° 0 mm 1 mps 760 mmHg 58%
    05:00 +21°C° 0 mm 1 mps 760 mmHg 59%
    06:00 +20°C° 0 mm 1 mps 760 mmHg 60%
    07:00 +22°C° 0 mm 1 mps 761 mmHg 56%
    08:00 +23°C° 0 mm 1 mps 761 mmHg 52%
    09:00 +25°C° 0 mm 1 mps 762 mmHg 49%
    10:00 +26°C° 0 mm 1 mps 761 mmHg 45%
    11:00 +28°C° 0 mm 1 mps 761 mmHg 40%
    12:00 +29°C° 0 mm 1 mps 760 mmHg 36%
    13:00 +30°C° 0 mm 1 mps 760 mmHg 34%
    14:00 +30°C° 0 mm 1 mps 759 mmHg 33%
    15:00 +30°C° 0 mm 1 mps 759 mmHg 31%
    16:00 +29°C° 0 mm 1 mps 759 mmHg 34%
    17:00 +27°C° 0 mm 1 mps 759 mmHg 38%
    18:00 +26°C° 0 mm 1 mps 759 mmHg 41%
    19:00 +25°C° 0 mm 1 mps 759 mmHg 42%
    20:00 +24°C° 0 mm 1 mps 759 mmHg 44%
    21:00 +24°C° 0 mm 1 mps 760 mmHg 45%
    22:00 +23°C° 0 mm 1 mps 760 mmHg 46%
    23:00 +23°C° 0 mm 1 mps 759 mmHg 47%
    Show more